AFR45CR LFLL-LFPG

Flight info

Callsign AFR45CR
Flight time 0h 52m
Altitude 28000
Route MOKIP DCT ARFOZ DCT TINIL
Aircraft A320/M-SDE2E3FGIJ1RWY/HB1

Departure

Time 2026-05-08 18:59
Airport Lyon Saint-Exupéry Airport (LFLL)

Arrival

Time 2026-05-08 19:51
Airport Charles de Gaulle International Airport (LFPG)
Time Latitude Longitude Altitude Speed Heading
2026-05-08 17:36 45.71628 5.07893 798 ft 0 kts 281°
2026-05-08 18:49 45.71625 5.07914 798 ft 3 kts 278°
2026-05-08 18:50 45.71623 5.07947 798 ft 3 kts 275°
2026-05-08 18:50 45.71620 5.07976 798 ft 2 kts 278°
2026-05-08 18:50 45.71615 5.08006 798 ft 3 kts 304°
2026-05-08 18:50 45.71599 5.08026 798 ft 3 kts 345°
2026-05-08 18:51 45.71577 5.08029 798 ft 3 kts 11°
2026-05-08 18:51 45.71565 5.08025 799 ft 0 kts 15°
2026-05-08 18:53 45.71573 5.08028 798 ft 6 kts 16°
2026-05-08 18:53 45.71634 5.08053 798 ft 10 kts 16°
2026-05-08 18:53 45.71692 5.08100 797 ft 9 kts 66°
2026-05-08 18:53 45.71684 5.08200 797 ft 11 kts 104°
2026-05-08 18:54 45.71676 5.08330 798 ft 15 kts 85°
2026-05-08 18:54 45.71691 5.08460 798 ft 11 kts 60°
2026-05-08 18:54 45.71758 5.08484 797 ft 13 kts 355°
2026-05-08 18:54 45.71875 5.08470 796 ft 21 kts 355°
2026-05-08 18:55 45.72223 5.08427 791 ft 24 kts 355°
2026-05-08 18:55 45.72402 5.08405 789 ft 27 kts 355°
2026-05-08 18:55 45.72597 5.08382 787 ft 30 kts 355°
2026-05-08 18:56 45.72778 5.08360 784 ft 25 kts 355°
2026-05-08 18:56 45.72952 5.08338 782 ft 27 kts 355°
2026-05-08 18:56 45.73107 5.08319 780 ft 21 kts 355°
2026-05-08 18:56 45.73262 5.08300 779 ft 23 kts 355°
2026-05-08 18:57 45.73430 5.08280 777 ft 26 kts 355°
2026-05-08 18:57 45.73548 5.08266 776 ft 23 kts 355°
2026-05-08 18:57 45.73697 5.08280 774 ft 13 kts 38°
2026-05-08 18:57 45.73724 5.08394 775 ft 12 kts 98°
2026-05-08 18:58 45.73703 5.08517 775 ft 14 kts 105°
2026-05-08 18:58 45.73690 5.08664 774 ft 17 kts 88°
2026-05-08 18:58 45.73662 5.08716 775 ft 6 kts 166°
2026-05-08 18:58 45.73570 5.08726 778 ft 38 kts 174°
2026-05-08 18:59 45.73055 5.08790 785 ft 110 kts 175°
2026-05-08 18:59 45.72094 5.08909 933 ft 153 kts 173°
2026-05-08 18:59 45.70940 5.09068 1368 ft 179 kts 173°
2026-05-08 18:59 45.69650 5.09228 1976 ft 196 kts 175°
2026-05-08 19:00 45.68252 5.09390 2725 ft 205 kts 176°
2026-05-08 19:00 45.66818 5.09597 3637 ft 210 kts 168°
2026-05-08 19:00 45.65572 5.10698 4496 ft 221 kts 128°
2026-05-08 19:00 45.65116 5.12817 5346 ft 234 kts 88°
2026-05-08 19:01 45.65727 5.14977 6228 ft 243 kts 48°
2026-05-08 19:01 45.67135 5.16305 7092 ft 245 kts 21°
2026-05-08 19:01 45.68757 5.17078 7973 ft 247 kts 15°
2026-05-08 19:01 45.70420 5.17743 8868 ft 250 kts 15°
2026-05-08 19:02 45.72091 5.18469 9761 ft 253 kts 17°
2026-05-08 19:02 45.73791 5.19168 10561 ft 256 kts
2026-05-08 19:02 45.75572 5.19144 11331 ft 259 kts 348°
2026-05-08 19:02 45.77346 5.18304 11705 ft 280 kts 329°
2026-05-08 19:03 45.79097 5.16837 12053 ft 304 kts 327°
2026-05-08 19:03 45.80992 5.15234 12360 ft 328 kts 327°
2026-05-08 19:03 45.83010 5.13536 12887 ft 342 kts 328°
2026-05-08 19:03 45.85084 5.11799 13667 ft 348 kts 328°
2026-05-08 19:04 45.87163 5.10061 14412 ft 352 kts 328°
2026-05-08 19:04 45.89313 5.08261 15176 ft 355 kts 327°
2026-05-08 19:04 45.91469 5.06589 15900 ft 360 kts 335°
2026-05-08 19:04 45.93891 5.05560 16612 ft 368 kts 348°
2026-05-08 19:05 45.96444 5.05092 17331 ft 372 kts 351°
2026-05-08 19:05 45.99025 5.04631 18041 ft 376 kts 350°
2026-05-08 19:05 46.01634 5.04156 18677 ft 380 kts 350°
2026-05-08 19:05 46.04268 5.03675 19324 ft 382 kts 351°
2026-05-08 19:06 46.06905 5.03195 20002 ft 384 kts 351°
2026-05-08 19:06 46.09558 5.02712 20692 ft 385 kts 351°
2026-05-08 19:06 46.12221 5.02225 21367 ft 387 kts 351°
2026-05-08 19:06 46.14891 5.01708 22042 ft 388 kts 347°
2026-05-08 19:07 46.17471 5.00590 22692 ft 388 kts 339°
2026-05-08 19:07 46.20022 4.99283 23358 ft 390 kts 339°
2026-05-08 19:07 46.22586 4.97961 23919 ft 393 kts 339°
2026-05-08 19:07 46.25166 4.96628 24416 ft 395 kts 339°
2026-05-08 19:08 46.27761 4.95283 24965 ft 396 kts 338°
2026-05-08 19:08 46.30361 4.93939 25490 ft 398 kts 338°
2026-05-08 19:08 46.32973 4.92594 25976 ft 400 kts 338°
2026-05-08 19:08 46.35600 4.91243 26436 ft 402 kts 338°
2026-05-08 19:09 46.38244 4.89881 26890 ft 404 kts 338°
2026-05-08 19:09 46.40904 4.88509 27330 ft 407 kts 338°
2026-05-08 19:09 46.43578 4.87125 27763 ft 409 kts 338°
2026-05-08 19:09 46.46264 4.85728 27957 ft 410 kts 338°
2026-05-08 19:10 46.48900 4.84359 27991 ft 393 kts 338°
2026-05-08 19:10 46.51428 4.83046 27990 ft 382 kts 338°
2026-05-08 19:10 46.53919 4.81746 27991 ft 379 kts 338°
2026-05-08 19:10 46.56400 4.80446 27994 ft 379 kts 338°
2026-05-08 19:11 46.58879 4.79147 27994 ft 378 kts 338°
2026-05-08 19:11 46.61353 4.77852 27994 ft 378 kts 338°
2026-05-08 19:11 46.63831 4.76553 27999 ft 378 kts 338°
2026-05-08 19:11 46.66306 4.75257 27999 ft 378 kts 338°
2026-05-08 19:12 46.68784 4.73959 28000 ft 378 kts 338°
2026-05-08 19:12 46.71259 4.72660 27999 ft 377 kts 338°
2026-05-08 19:12 46.73725 4.71366 28003 ft 383 kts 338°
2026-05-08 19:12 46.76279 4.70022 28000 ft 395 kts 338°
2026-05-08 19:13 46.78879 4.68651 28003 ft 399 kts 338°
2026-05-08 19:13 46.84121 4.65899 28002 ft 401 kts 338°
2026-05-08 19:14 46.89386 4.63119 28014 ft 410 kts 338°
2026-05-08 19:14 46.92109 4.61670 28008 ft 422 kts 338°
2026-05-08 19:14 46.94907 4.60179 28008 ft 433 kts 338°
2026-05-08 19:15 47.00655 4.57123 28008 ft 444 kts 338°
2026-05-08 19:15 47.06503 4.54029 28013 ft 449 kts 338°
2026-05-08 19:16 47.12398 4.50898 28011 ft 451 kts 338°
2026-05-08 19:16 47.18317 4.47743 28019 ft 455 kts 338°
2026-05-08 19:17 47.24284 4.44544 28020 ft 457 kts 338°
2026-05-08 19:17 47.30262 4.41327 28036 ft 458 kts 338°
2026-05-08 19:18 47.36233 4.38123 28045 ft 456 kts 338°
2026-05-08 19:18 47.42187 4.34918 28051 ft 455 kts 338°
2026-05-08 19:19 47.48039 4.31756 27949 ft 430 kts 338°
2026-05-08 19:19 47.50783 4.30276 27821 ft 411 kts 338°
2026-05-08 19:19 47.53426 4.28850 27517 ft 398 kts 337°
2026-05-08 19:19 47.56008 4.27454 27219 ft 393 kts 337°
2026-05-08 19:20 47.58571 4.26061 26963 ft 392 kts 337°
2026-05-08 19:20 47.59400 4.25610 26875 ft 391 kts 337°
2026-05-08 19:20 47.63664 4.23279 26452 ft 389 kts 337°
2026-05-08 19:20 47.66164 4.21914 26211 ft 387 kts 337°
2026-05-08 19:21 47.68722 4.20518 25959 ft 386 kts 337°
2026-05-08 19:21 47.71236 4.19143 25711 ft 385 kts 338°
2026-05-08 19:21 47.73717 4.17783 25479 ft 384 kts 337°
2026-05-08 19:21 47.76250 4.16397 25234 ft 382 kts 338°
2026-05-08 19:22 47.78709 4.15052 25000 ft 381 kts 338°
2026-05-08 19:22 47.81222 4.13677 24762 ft 379 kts 338°
2026-05-08 19:22 47.83690 4.12322 24518 ft 378 kts 338°
2026-05-08 19:22 47.86119 4.10986 24296 ft 377 kts 338°
2026-05-08 19:23 47.88573 4.09634 24059 ft 375 kts 338°
2026-05-08 19:23 47.91017 4.08284 23835 ft 374 kts 338°
2026-05-08 19:23 47.93454 4.06938 23600 ft 373 kts 338°
2026-05-08 19:23 47.95881 4.05599 23350 ft 370 kts 337°
2026-05-08 19:24 47.98285 4.04273 23069 ft 368 kts 337°
2026-05-08 19:24 48.00680 4.02950 22798 ft 367 kts 337°
2026-05-08 19:24 48.03072 4.01625 22528 ft 366 kts 337°
2026-05-08 19:24 48.04684 4.00733 22349 ft 366 kts 337°
2026-05-08 19:25 48.07129 3.99375 22083 ft 383 kts 337°
2026-05-08 19:25 48.09649 3.97976 21821 ft 388 kts 337°
2026-05-08 19:25 48.12188 3.96567 21555 ft 389 kts 337°
2026-05-08 19:25 48.14728 3.95157 21294 ft 389 kts 337°
2026-05-08 19:26 48.17265 3.93753 21046 ft 388 kts 337°
2026-05-08 19:26 48.19797 3.92352 20790 ft 387 kts 337°
2026-05-08 19:26 48.22288 3.90968 20539 ft 387 kts 336°
2026-05-08 19:26 48.24808 3.89560 20287 ft 386 kts 336°
2026-05-08 19:27 48.27357 3.88131 20043 ft 386 kts 336°
2026-05-08 19:27 48.29872 3.86718 19790 ft 385 kts 336°
2026-05-08 19:27 48.32383 3.85305 19546 ft 385 kts 336°
2026-05-08 19:27 48.34861 3.83916 19309 ft 385 kts 336°
2026-05-08 19:28 48.37285 3.82163 19060 ft 380 kts 323°
2026-05-08 19:28 48.39445 3.79878 18840 ft 379 kts 322°
2026-05-08 19:28 48.41590 3.77572 18606 ft 379 kts 322°
2026-05-08 19:28 48.43729 3.75259 18375 ft 379 kts 322°
2026-05-08 19:29 48.45868 3.72938 17848 ft 380 kts 322°
2026-05-08 19:29 48.48013 3.70610 17104 ft 379 kts 322°
2026-05-08 19:29 48.50128 3.68317 16392 ft 372 kts 322°
2026-05-08 19:29 48.52220 3.66047 15718 ft 370 kts 322°
2026-05-08 19:30 48.54269 3.63824 15366 ft 367 kts 322°
2026-05-08 19:30 48.56342 3.61574 15119 ft 367 kts 322°
2026-05-08 19:30 48.58412 3.59322 14872 ft 366 kts 322°
2026-05-08 19:30 48.60416 3.56968 14636 ft 364 kts 315°
2026-05-08 19:31 48.62084 3.54119 14397 ft 361 kts 303°
2026-05-08 19:31 48.63450 3.50943 14158 ft 360 kts 301°
2026-05-08 19:31 48.64801 3.47763 13914 ft 359 kts 301°
2026-05-08 19:31 48.66156 3.44592 13656 ft 358 kts 301°
2026-05-08 19:32 48.67508 3.41436 13393 ft 357 kts 301°
2026-05-08 19:32 48.68854 3.38286 13142 ft 355 kts 301°
2026-05-08 19:32 48.70193 3.35150 13053 ft 354 kts 301°
2026-05-08 19:32 48.71526 3.32013 13070 ft 354 kts 301°
2026-05-08 19:33 48.72859 3.28874 13067 ft 355 kts 301°
2026-05-08 19:33 48.74192 3.25731 13069 ft 355 kts 301°
2026-05-08 19:33 48.75527 3.22588 13071 ft 355 kts 301°
2026-05-08 19:33 48.76859 3.19447 13071 ft 355 kts 301°
2026-05-08 19:34 48.78191 3.16297 13073 ft 355 kts 301°
2026-05-08 19:34 48.79519 3.13146 13071 ft 355 kts 301°
2026-05-08 19:34 48.80847 3.09998 13069 ft 355 kts 301°
2026-05-08 19:34 48.82175 3.06846 13070 ft 355 kts 301°
2026-05-08 19:35 48.83503 3.03693 13073 ft 355 kts 301°
2026-05-08 19:35 48.84932 3.00636 13068 ft 356 kts 309°
2026-05-08 19:35 48.86599 2.97853 13072 ft 356 kts 311°
2026-05-08 19:35 48.88273 2.95078 13072 ft 356 kts 311°
2026-05-08 19:36 48.89946 2.92301 13072 ft 356 kts 311°
2026-05-08 19:36 48.91616 2.89518 13072 ft 356 kts 309°
2026-05-08 19:36 48.92964 2.86389 13076 ft 353 kts 292°
2026-05-08 19:36 48.93539 2.82787 13073 ft 351 kts 272°
2026-05-08 19:37 48.93439 2.79083 13082 ft 351 kts 265°
2026-05-08 19:37 48.93246 2.75381 13083 ft 351 kts 265°
2026-05-08 19:37 48.93044 2.71699 13077 ft 343 kts 264°
2026-05-08 19:37 48.92847 2.68165 12955 ft 328 kts 264°
2026-05-08 19:38 48.92665 2.64848 12809 ft 302 kts 265°
2026-05-08 19:38 48.92496 2.61743 12367 ft 289 kts 265°
2026-05-08 19:38 48.92331 2.58720 11745 ft 285 kts 264°
2026-05-08 19:38 48.92167 2.55740 11104 ft 281 kts 264°
2026-05-08 19:39 48.92006 2.52798 10442 ft 278 kts 264°
2026-05-08 19:39 48.91847 2.49894 9801 ft 274 kts 264°
2026-05-08 19:39 48.91690 2.47018 9074 ft 272 kts 264°
2026-05-08 19:39 48.91533 2.44157 8339 ft 271 kts 264°
2026-05-08 19:40 48.91377 2.41310 7598 ft 270 kts 264°
2026-05-08 19:40 48.91220 2.38475 6893 ft 268 kts 264°
2026-05-08 19:40 48.91064 2.35652 6159 ft 269 kts 264°
2026-05-08 19:40 48.90902 2.32804 5653 ft 271 kts 264°
2026-05-08 19:41 48.90741 2.29952 5281 ft 271 kts 264°
2026-05-08 19:41 48.90580 2.27087 5067 ft 272 kts 264°
2026-05-08 19:41 48.90414 2.24217 5001 ft 273 kts 264°
2026-05-08 19:41 48.90246 2.21343 5011 ft 273 kts 264°
2026-05-08 19:42 48.90078 2.18471 5008 ft 273 kts 264°
2026-05-08 19:42 48.89912 2.15592 5010 ft 272 kts 264°
2026-05-08 19:42 48.89752 2.12824 5003 ft 254 kts 264°
2026-05-08 19:42 48.89619 2.10220 5010 ft 244 kts 265°
2026-05-08 19:43 48.89506 2.07656 5012 ft 243 kts 265°
2026-05-08 19:43 48.89444 2.05097 5011 ft 243 kts 276°
2026-05-08 19:43 48.90030 2.02732 5014 ft 242 kts 308°
2026-05-08 19:43 48.91326 2.01166 5015 ft 240 kts 339°
2026-05-08 19:44 48.92949 2.00812 5016 ft 237 kts 11°
2026-05-08 19:44 48.94489 2.01619 5007 ft 235 kts 33°
2026-05-08 19:44 48.95692 2.03255 5010 ft 232 kts 56°
2026-05-08 19:44 48.96377 2.05455 5009 ft 231 kts 78°
2026-05-08 19:45 48.96565 2.07874 5011 ft 231 kts 86°
2026-05-08 19:45 48.96704 2.10309 5011 ft 231 kts 86°
2026-05-08 19:45 48.96844 2.12742 5015 ft 231 kts 85°
2026-05-08 19:45 48.96985 2.15178 5011 ft 231 kts 86°
2026-05-08 19:46 48.97125 2.17614 5012 ft 231 kts 85°
2026-05-08 19:46 48.97264 2.20051 4964 ft 232 kts 85°
2026-05-08 19:46 48.97540 2.24906 4396 ft 229 kts 85°
2026-05-08 19:47 48.97677 2.27315 4107 ft 228 kts 85°
2026-05-08 19:47 48.97812 2.29709 3804 ft 227 kts 85°
2026-05-08 19:47 48.97945 2.32090 3502 ft 225 kts 85°
2026-05-08 19:47 48.98077 2.34452 3205 ft 223 kts 85°
2026-05-08 19:48 48.98207 2.36786 2898 ft 217 kts 85°
2026-05-08 19:48 48.98331 2.39013 2618 ft 206 kts 85°
2026-05-08 19:48 48.98448 2.41125 2352 ft 195 kts 84°
2026-05-08 19:48 48.98558 2.43120 2125 ft 181 kts 85°
2026-05-08 19:49 48.98657 2.44927 1865 ft 161 kts 84°
2026-05-08 19:49 48.98745 2.46527 1660 ft 144 kts 85°
2026-05-08 19:49 48.98826 2.48009 1466 ft 138 kts 85°
2026-05-08 19:49 48.98904 2.49444 1291 ft 135 kts 84°
2026-05-08 19:50 48.98981 2.50878 1092 ft 136 kts 84°
2026-05-08 19:50 48.99057 2.52332 913 ft 136 kts 83°
2026-05-08 19:50 48.99140 2.53741 730 ft 135 kts 85°
2026-05-08 19:50 48.99214 2.55171 584 ft 136 kts 83°
2026-05-08 19:51 48.99292 2.56594 402 ft 134 kts 83°
2026-05-08 19:51 48.99362 2.57899 352 ft 104 kts 85°
2026-05-08 19:51 48.99410 2.58781 352 ft 70 kts 85°
2026-05-08 19:51 48.99462 2.59243 351 ft 38 kts 64°
2026-05-08 19:52 48.99538 2.59492 355 ft 12 kts 66°
2026-05-08 19:52 48.99576 2.59619 357 ft 14 kts 65°
2026-05-08 19:52 48.99656 2.59691 361 ft 13 kts 357°
2026-05-08 19:52 48.99757 2.59679 355 ft 16 kts 355°
2026-05-08 19:53 48.99882 2.59664 353 ft 19 kts 355°
2026-05-08 19:53 48.99930 2.59658 360 ft 2 kts 355°
2026-05-08 19:53 48.99956 2.59655 356 ft 8 kts 355°
2026-05-08 19:53 49.00040 2.59645 358 ft 14 kts 355°
2026-05-08 19:54 49.00147 2.59632 356 ft 17 kts 355°
2026-05-08 19:54 49.00273 2.59618 354 ft 20 kts 355°
2026-05-08 19:54 49.00380 2.59604 354 ft 16 kts 355°
2026-05-08 19:54 49.00500 2.59588 354 ft 19 kts 355°
2026-05-08 19:55 49.00635 2.59570 354 ft 21 kts 355°
2026-05-08 19:55 49.00781 2.59553 361 ft 22 kts 355°
2026-05-08 19:55 49.00912 2.59538 361 ft 16 kts 355°
2026-05-08 19:55 49.00999 2.59492 357 ft 14 kts 302°
2026-05-08 19:56 49.00996 2.59334 359 ft 16 kts 266°
2026-05-08 19:56 49.00987 2.59153 355 ft 18 kts 263°
2026-05-08 19:56 49.00961 2.58972 357 ft 16 kts 253°
2026-05-08 19:56 49.00945 2.58789 357 ft 19 kts 265°
2026-05-08 19:57 49.00934 2.58581 355 ft 21 kts 265°
2026-05-08 19:57 49.00920 2.58351 358 ft 23 kts 264°
2026-05-08 19:57 49.00912 2.58180 361 ft 13 kts 265°
2026-05-08 19:57 49.00903 2.58030 355 ft 15 kts 265°
2026-05-08 19:58 49.00895 2.57866 354 ft 13 kts 266°
2026-05-08 19:58 49.00889 2.57774 360 ft 6 kts 255°
2026-05-08 19:58 49.00859 2.57733 356 ft 6 kts 196°
2026-05-08 19:58 49.00849 2.57731 355 ft 0 kts 184°
2026-05-08 20:01 49.00846 2.57731 355 ft 2 kts 184°
2026-05-08 20:02 49.00818 2.57727 356 ft 5 kts 189°
2026-05-08 20:02 49.00793 2.57647 361 ft 11 kts 267°
2026-05-08 20:02 49.00787 2.57512 355 ft 14 kts 265°
2026-05-08 20:02 49.00779 2.57355 360 ft 12 kts 265°
2026-05-08 20:03 49.00759 2.57236 356 ft 9 kts 229°
2026-05-08 20:03 49.00692 2.57229 359 ft 11 kts 174°
2026-05-08 20:03 49.00614 2.57238 355 ft 8 kts 176°
2026-05-08 20:03 49.00578 2.57274 356 ft 7 kts 87°
2026-05-08 20:04 49.00580 2.57311 359 ft 5 kts 86°
2026-05-08 20:04 49.00582 2.57345 354 ft 2 kts 89°
2026-05-08 20:04 49.00582 2.57352 354 ft 0 kts 89°